Regional Weather Roundup
Issued by NWS

Home | Current Version | Previous Version | Graphics & Text | Print | Product List | Glossary On
Versions: 1 2 3 4 5 6 7 8 9 10 11 12 13 14 15 16 17 18 19 20 21 22 23 24 25 26 27 28 29 30 31 32 33 34 35 36 37 38 39 40 41 42 43 44 45 46 47 48 49 50
000
ASUS43 KTOP 200908
RWRKS

WEATHER ROUNDUP FOR KANSAS
NATIONAL WEATHER SERVICE GOODLAND KS
400 AM CDT MON OCT 20 2014

NOTE:  "FAIR" INDICATES FEW OR NO CLOUDS BELOW 12,000 FEET WITH NO
SIGNIFICANT WEATHER AND/OR OBSTRUCTIONS TO VISIBILITY.

KSZ001>006-013>018-027>032-041>047-201000-
NORTHWEST KANSAS

CITY           SKY/WX    TMP DP  RH WIND       PRES   REMARKS
GOODLAND       CLEAR     41  38  89 W5        30.13S
HAYS           CLEAR     46  43  87 NW6       30.03F
HILL CITY      CLEAR     44  41  89 W5        30.06S
RUSSELL        CLEAR     49  47  93 N6        30.01F
$$

KSZ061>065-074>080-084>089-201000-
SOUTHWEST KANSAS

CITY           SKY/WX    TMP DP  RH WIND       PRES   REMARKS
DODGE CITY     CLEAR     48  45  89 NW10      30.03S
ELKHART          N/A     51  43  74 NW5         N/A
GARDEN CITY    CLEAR     47  45  93 N8        30.05R
GREAT BEND       N/A     50  46  87 CALM      30.02S VSB 3/4
LIBERAL        CLEAR     52  45  76 NW5       30.06S
PRATT            N/A     52  52 100 CALM      30.02S FOG
$$

KSZ066>073-081>083-090>101-201000-
SOUTHEAST KANSAS

CITY           SKY/WX    TMP DP  RH WIND       PRES   REMARKS
CHANUTE        CLOUDY    58  54  86 S7        30.02F
COFFEYVILLE    CLOUDY    58  55  90 S6        30.03F
HUTCHINSON     CLEAR     53  50  89 CALM      30.02S
MEDICINE LODGE   N/A     57  55  93 SE5       30.00S
NEWTON         CLEAR     55  48  76 S5        30.03F
PARSONS        CLOUDY    59  55  87 S6        30.04S
WICHITA INTL   PTCLDY    58  54  86 SE5       30.00F
WICHITA JABRA  PTCLDY    57  53  86 S3        30.01S
WICHITA MCCONL CLEAR     59  58  99 SE2       30.01F
WINFIELD       PTCLDY    59  55  87 CALM      30.02F
$$

KSZ007>012-019>026-033>040-048>060-102>105-201000-
NORTHEAST KANSAS

CITY           SKY/WX    TMP DP  RH WIND       PRES   REMARKS
CONCORDIA      CLEAR     49  48  97 W3        30.02S
EMPORIA        CLEAR     53  52  96 S3        30.01F
LAWRENCE       CLEAR     48  46  93 NW3       30.01F
MANHATTAN      CLEAR     46  45  96 CALM      30.01F FOG
MARYSVILLE     CLEAR     48  46  93 CALM      30.01S
OLATHE IND     CLEAR     52  50  93 CALM      30.01F
OLATHE EXE     CLEAR     54  52  93 W5        30.00F
SALINA         CLEAR     51  47  86 CALM      30.02S
TOPEKA BILLARD FOG       49  48  97 CALM      30.01F VSB 1/2
TOPEKA FORBES  CLEAR     51  49  92 W3        30.00F
$$


USA.gov is the U.S. government's official web portal to all federal, state and local government web resources and services.